Location: Napoli
(40.8639°N, 14.2562°E)
Time: 18:01:41
(UTC+02:00)

Hubble Space Telescope - Visible Passes

Search period start: 17 July 2025 00:00
Search period end: 27 July 2025 00:00
Orbit: 487 x 490 km, 28.5° (Epoch: 16 July)

Date Brightness Start Highest point End Pass type
(mag) Time Alt. Az. Time Alt. Az. Time Alt. Az.
20 Jul 2.8 21:35:55 10° S 21:36:45 11° S 21:36:46 11° S visible
21 Jul 2.7 21:08:58 10° S 21:09:55 11° S 21:10:53 10° SSE visible
22 Jul 3.1 22:20:43 10° SSW 22:20:45 10° SSW 22:20:45 10° SSW visible
23 Jul 2.7 21:53:56 10° SSW 21:55:24 12° S 21:55:24 12° S visible
24 Jul 2.7 21:27:07 10° SSW 21:28:44 12° S 21:30:00 11° SSE visible
25 Jul 2.8 21:00:18 10° SSW 21:01:53 12° S 21:03:28 10° SSE visible
